Погода в Каспийске

Россия / Республика Дагестан     42°53′26″N   47°38′08″E
темп.,
°C
ветер,
м/с
пор.,
м/с
влажн.,
%
обл.,
%
осадки,
мм/ч
давл.,
гПа
погр.,
м
25 июня, сб
сб2500:00+22юв4580100 0.1 1009390
03:00+22юв347830 0.1 1009259
06:00+22юв458020 0.0 1009340
09:00+22всв1171100 0.0 1009154
12:00+23ссв336513 0.0 1009352
15:00+24всв3366100 0.0 1008276
18:00+23сз2274100 0.7 100879
21:00+23сз447398 0.7 100952
26 июня, вс
вс2600:00+23зсз5673100 0.0 1007121
03:00+22зсз6875100 0.0 1008263
06:00+21сз8980100 0.0 1008336
09:00+24сз7970100 0.0 1007248
12:00+24с4468100 0.0 100686
15:00+24с456992 0.0 100575
18:00+24ссз5675100 0.0 100588
21:00+24зсз71076100 0.1 1007134
27 июня, пн
пн2700:00+23сз131775100 0.4 1006395
03:00+22сз1317773 0.4 1007488
06:00+23зсз1217720 0.0 1008476
09:00+24сз1216690 0.0 1008427
12:00+23с911820 0.0 1009260
15:00+23ссз1012814 0.0 1008277
18:00+24ссз11147439 0.0 1008300
21:00+24сз12166990 0.0 1009369
28 июня, вт
вт2800:00+23сз12166999 0.0 1008422
03:00+23зсз111470100 0.0 1008374
06:00+23зсз1113691 0.0 1008415
09:00+24ссз911700 0.0 1008318
12:00+23с1113750 0.0 1008415
15:00+24с1013770 0.0 1008452
18:00+23ссз710780 0.0 1009261
21:00+24сз67695 0.0 1010100
29 июня, ср
ср2900:00+23зсз7964100 0.0 1011144
03:00+23сз686398 0.0 1010135
06:00+22сз79640 0.0 1011209
09:00+25сз67580 0.0 1011127
12:00+24св78780 0.0 1011220
15:00+23св68844 0.0 1012413
18:00+22св658114 0.0 1013603
21:00+22всв447698 0.0 1014588